Darstellungsparameter: Aktuell verwendete Einstellungen:
Skalierung der Graphiken ... ?
xyx+y,   Skalierungsfaktor:      Skalierung: Modus: x, Faktor: 1
Darstellungszeitraum ... ?
Vom - - bis: - -   Zeitraum: 02.06.2020 - 22.06.2020
Min/Max/Avg-Anzeige ... ?
Zeige MMA aktuell
Zeige MMA Monat
Zeige MMA alles
Zeige --A aktuell
Zeige --A Monat
Zeige --A alles
Keine MMA-Anzeige
MMA:
Minimum Maximum Average (ber die Originaldaten)
MMA-Basis: 14.04.2020 - 16.05.2020
Quicknavigation für Darstellung... ?
Tage:      1T, 2T, 3T, 5T -1T -2T -3T -5T +1T +2T +3T +5T
Wochen: 1W, 2W, 3W -1W -2W -3W +1W +2W +3W
Monate: 1M, 3M, 6M -1M -3M -6M +1M +3M +6M
Jahre:    1J, 3J, 5J, 10J -1J -3J -5J -10J +1J +3J +5J +10J
Nutze für die Darstellung ... ?
Originaldaten oder ...
Mittelwerte Minima Maxima auf...
Stundenbasis Tagesbasis Wochenbasis
Monatsbasis Jahresbasis      Datenbasis: Mittelwerte auf Stundenbasis
Darstellen als:
Statistik (Auto) Statistik J:M      Darstellung:
Zur Graphik,    zurück zur Übersicht aller Sensoren.
 
Tabellarische Datenbersicht: ?
 
Sensor: Nr:Datum:Temp:Abs-Feuchte:Windchill:Wind:
Aussen-T/F 1 02-06-2020 00:00:00 16.1 C 8.53 g/m*3 16.1 C 1.6 km/h
2 02-06-2020 01:00:00 15.44167 C 8.48 g/m*3 15.44 C 2.8 km/h
3 02-06-2020 02:00:00 14.21667 C 8.52 g/m*3 14.22 C 1.33333 km/h
4 02-06-2020 03:00:00 12.66667 C 8.44 g/m*3 12.67 C 0 km/h
5 02-06-2020 04:00:00 11.31667 C 8.34 g/m*3 11.32 C 0 km/h
6 02-06-2020 05:00:00 10.60833 C 8.3 g/m*3 10.61 C 0.26667 km/h
7 02-06-2020 06:00:00 10.6 C 8.56 g/m*3 10.6 C 0.13333 km/h
8 02-06-2020 07:00:00 11.075 C 8.92 g/m*3 11.08 C 0.26667 km/h
9 02-06-2020 08:00:00 12.39167 C 9.57 g/m*3 12.39 C 0 km/h
10 02-06-2020 09:00:00 14.75833 C 10.37 g/m*3 14.76 C 0 km/h
11 02-06-2020 10:00:00 19.225 C 10.53 g/m*3 19.23 C 4.025 km/h
12 02-06-2020 11:00:00 23 C 9.51 g/m*3 23 C 8.60833 km/h
13 02-06-2020 12:00:00 23.95833 C 9.35 g/m*3 23.96 C 11.025 km/h
14 02-06-2020 13:00:00 25.10833 C 9.53 g/m*3 25.11 C 9.26667 km/h
15 02-06-2020 14:00:00 26.29167 C 9.28 g/m*3 26.29 C 12.35833 km/h
16 02-06-2020 15:00:00 27.96667 C 9.07 g/m*3 27.97 C 9.8 km/h
17 02-06-2020 16:00:00 29.26667 C 8.84 g/m*3 29.27 C 9.28333 km/h
18 02-06-2020 17:00:00 30.33333 C 8.57 g/m*3 30.33 C 6.69167 km/h
19 02-06-2020 18:00:00 28.85 C 8.55 g/m*3 28.85 C 7.11667 km/h
20 02-06-2020 19:00:00 28.41667 C 9.6 g/m*3 28.42 C 4.01667 km/h
21 02-06-2020 20:00:00 24.4 C 10.07 g/m*3 24.4 C 5.6 km/h
22 02-06-2020 21:00:00 21.53333 C 9.27 g/m*3 21.53 C 5.74167 km/h
23 02-06-2020 22:00:00 19.28333 C 9.45 g/m*3 19.28 C 1.2 km/h
24 02-06-2020 23:00:00 17.6 C 9.55 g/m*3 17.6 C 0 km/h
25 03-06-2020 00:00:00 16.41667 C 9.35 g/m*3 16.42 C 0 km/h
Sensor: Nr:Datum:Temp:Abs-Feuchte:Windchill:Wind:
Aussen-T/F 26 03-06-2020 01:00:00 15.61667 C 9.54 g/m*3 15.62 C 2.675 km/h
27 03-06-2020 02:00:00 15.58333 C 9.82 g/m*3 15.58 C 0.93333 km/h
28 03-06-2020 03:00:00 14.60833 C 9.81 g/m*3 14.61 C 0.26667 km/h
29 03-06-2020 04:00:00 14.075 C 9.82 g/m*3 14.08 C 0 km/h
30 03-06-2020 05:00:00 14 C 9.85 g/m*3 14 C 0.13333 km/h
31 03-06-2020 06:00:00 13.65 C 9.89 g/m*3 13.65 C 0 km/h
32 03-06-2020 07:00:00 14.20833 C 10.52 g/m*3 14.21 C 0 km/h
33 03-06-2020 08:00:00 15.79167 C 11.26 g/m*3 15.79 C 0.26667 km/h
34 03-06-2020 09:00:00 18.18333 C 11.15 g/m*3 18.18 C 0.93333 km/h
35 03-06-2020 10:00:00 20.725 C 10.74 g/m*3 20.73 C 2.66667 km/h
36 03-06-2020 11:00:00 23.15833 C 9.71 g/m*3 23.16 C 5.49167 km/h
37 03-06-2020 12:00:00 24.21667 C 9.51 g/m*3 24.22 C 7.10833 km/h
38 03-06-2020 13:00:00 25.38333 C 9.41 g/m*3 25.38 C 9.16667 km/h
39 03-06-2020 14:00:00 23.54167 C 9.43 g/m*3 23.54 C 12.35 km/h
40 03-06-2020 15:00:00 24.125 C 9.7 g/m*3 24.13 C 7.25 km/h
41 03-06-2020 16:00:00 26.66667 C 9.22 g/m*3 26.67 C 7.1 km/h
42 03-06-2020 17:00:00 26.85 C 9.53 g/m*3 26.85 C 6.58333 km/h
43 03-06-2020 18:00:00 25.325 C 9.57 g/m*3 25.33 C 4.80833 km/h
44 03-06-2020 19:00:00 25.55 C 10.07 g/m*3 25.55 C 3.74167 km/h
45 03-06-2020 20:00:00 24.35 C 9.88 g/m*3 24.35 C 3.46667 km/h
46 03-06-2020 21:00:00 21.14167 C 10.33 g/m*3 21.14 C 4.4 km/h
47 03-06-2020 22:00:00 18.875 C 10.19 g/m*3 18.88 C 4.275 km/h
48 03-06-2020 23:00:00 17.15833 C 10.27 g/m*3 17.16 C 2.4 km/h
49 04-06-2020 00:00:00 18.2 C 11.22 g/m*3 18.2 C 8.6 km/h
50 04-06-2020 01:00:00 17.51667 C 11.99 g/m*3 17.52 C 9.95833 km/h
Sensor: Nr:Datum:Temp:Abs-Feuchte:Windchill:Wind:
Aussen-T/F 51 04-06-2020 02:00:00 15.65 C 11.93 g/m*3 15.65 C 6.84167 km/h
52 04-06-2020 03:00:00 14.91667 C 11.82 g/m*3 14.92 C 0.66667 km/h
53 04-06-2020 04:00:00 14.79167 C 11.9 g/m*3 14.79 C 1.46667 km/h
54 04-06-2020 05:00:00 14.54167 C 11.73 g/m*3 14.54 C 0.93333 km/h
55 04-06-2020 06:00:00 14.3 C 11.67 g/m*3 14.3 C 0 km/h
56 04-06-2020 07:00:00 14.46667 C 11.82 g/m*3 14.47 C 0 km/h
57 04-06-2020 08:00:00 14.625 C 12.03 g/m*3 14.63 C 0 km/h
58 04-06-2020 09:00:00 14.93333 C 12.26 g/m*3 14.93 C 0 km/h
59 04-06-2020 10:00:00 15.125 C 12.4 g/m*3 15.13 C 0.26667 km/h
60 04-06-2020 11:00:00 15.8 C 12.92 g/m*3 15.8 C 1.06667 km/h
61 04-06-2020 12:00:00 15.80833 C 12.68 g/m*3 15.81 C 2.26667 km/h
62 04-06-2020 13:00:00 16.41667 C 12.45 g/m*3 16.42 C 5.49167 km/h
63 04-06-2020 14:00:00 15.34167 C 11.95 g/m*3 15.34 C 4.41667 km/h
64 04-06-2020 15:00:00 15.19167 C 11.92 g/m*3 15.19 C 7.11667 km/h
65 04-06-2020 16:00:00 15.1 C 11.69 g/m*3 15.1 C 7.65833 km/h
66 04-06-2020 17:00:00 14.625 C 11.19 g/m*3 14.63 C 11.675 km/h
67 04-06-2020 18:00:00 13.65 C 10.59 g/m*3 13.65 C 6.03333 km/h
68 04-06-2020 19:00:00 13.14167 C 10.57 g/m*3 13.14 C 1.73333 km/h
69 04-06-2020 20:00:00 12.75 C 10.33 g/m*3 12.75 C 3.475 km/h
70 04-06-2020 21:00:00 12.39167 C 9.96 g/m*3 12.39 C 5.08333 km/h
71 04-06-2020 22:00:00 11.69167 C 9.68 g/m*3 11.69 C 5.075 km/h
72 04-06-2020 23:00:00 11.16667 C 9.51 g/m*3 11.17 C 4.66667 km/h
73 05-06-2020 00:00:00 11.18333 C 9.38 g/m*3 11.18 C 4.95 km/h
74 05-06-2020 01:00:00 11.05 C 9.05 g/m*3 11.05 C 4.95 km/h
75 05-06-2020 02:00:00 11 C 8.62 g/m*3 10.75 C 5.5 km/h
Sensor: Nr:Datum:Temp:Abs-Feuchte:Windchill:Wind:
Aussen-T/F 76 05-06-2020 03:00:00 10.53333 C 8.54 g/m*3 10.53 C 2 km/h
77 05-06-2020 04:00:00 9.48333 C 8.16 g/m*3 9.48 C 3.46667 km/h
78 05-06-2020 05:00:00 8.925 C 8.17 g/m*3 8.93 C 1.33333 km/h
79 05-06-2020 06:00:00 9.375 C 8.37 g/m*3 9.38 C 2.66667 km/h
80 05-06-2020 07:00:00 10.14167 C 8.5 g/m*3 9.89 C 5.1 km/h
81 05-06-2020 08:00:00 10.775 C 8.61 g/m*3 10.25 C 6.45 km/h
82 05-06-2020 09:00:00 11.74167 C 8.83 g/m*3 11.74 C 9.275 km/h
83 05-06-2020 10:00:00 12.7 C 8.97 g/m*3 12.7 C 8.19167 km/h
84 05-06-2020 11:00:00 13.93333 C 8.79 g/m*3 13.93 C 13.83333 km/h
85 05-06-2020 12:00:00 14.4 C 8.8 g/m*3 14.4 C 11.55 km/h
86 05-06-2020 13:00:00 14.175 C 8.66 g/m*3 14.18 C 13.96667 km/h
87 05-06-2020 14:00:00 13.70833 C 9.3 g/m*3 13.71 C 13.41667 km/h
88 05-06-2020 15:00:00 13.725 C 10.11 g/m*3 13.73 C 11.14167 km/h
89 05-06-2020 16:00:00 12.61667 C 9.79 g/m*3 12.62 C 16.90833 km/h
90 05-06-2020 17:00:00 12.20833 C 9.91 g/m*3 12.21 C 9.81667 km/h
91 05-06-2020 18:00:00 11.525 C 9.24 g/m*3 11.53 C 11.675 km/h
92 05-06-2020 19:00:00 11.49167 C 9.33 g/m*3 11.49 C 8.325 km/h
93 05-06-2020 20:00:00 11.225 C 8.89 g/m*3 11.23 C 7.25 km/h
94 05-06-2020 21:00:00 10.4 C 8.51 g/m*3 9.28 C 9.00833 km/h
95 05-06-2020 22:00:00 10.15 C 8.27 g/m*3 8.89 C 9.53333 km/h
96 05-06-2020 23:00:00 9.8 C 8.1 g/m*3 8.68 C 8.45833 km/h
97 06-06-2020 00:00:00 9.66667 C 7.87 g/m*3 8.55 C 8.325 km/h
98 06-06-2020 01:00:00 9.15833 C 7.72 g/m*3 8.57 C 5.75 km/h
99 06-06-2020 02:00:00 8.34167 C 7.56 g/m*3 7.48 C 6.29167 km/h
100 06-06-2020 03:00:00 8.04167 C 7.62 g/m*3 8.04 C 3.33333 km/h
Sensor: Nr:Datum:Temp:Abs-Feuchte:Windchill:Wind:
Aussen-T/F 101 06-06-2020 04:00:00 8.53333 C 7.91 g/m*3 8.53 C 3.35 km/h
102 06-06-2020 05:00:00 8.6 C 7.89 g/m*3 8.6 C 1.46667 km/h
103 06-06-2020 06:00:00 8.96667 C 8.18 g/m*3 8.97 C 3.46667 km/h
104 06-06-2020 07:00:00 10.39167 C 8.67 g/m*3 8.85 C 11.55833 km/h
105 06-06-2020 08:00:00 11.35833 C 8.74 g/m*3 11.36 C 10.20833 km/h
106 06-06-2020 09:00:00 12.55 C 8.96 g/m*3 12.55 C 14.23333 km/h
107 06-06-2020 10:00:00 13.29167 C 9.33 g/m*3 13.29 C 11.40833 km/h
108 06-06-2020 11:00:00 12.6 C 9.97 g/m*3 12.6 C 2.68333 km/h
109 06-06-2020 12:00:00 12.73333 C 10.04 g/m*3 12.73 C 9.525 km/h
110 06-06-2020 13:00:00 12.55833 C 9.72 g/m*3 12.56 C 6.7 km/h
111 06-06-2020 14:00:00 14.05 C 10.01 g/m*3 14.05 C 9.675 km/h
112 06-06-2020 15:00:00 15.2 C 10.42 g/m*3 15.2 C 8.89167 km/h
113 06-06-2020 16:00:00 17.225 C 10.34 g/m*3 17.23 C 14.76667 km/h
114 06-06-2020 17:00:00 16.93333 C 9.2 g/m*3 16.93 C 11.14167 km/h
115 06-06-2020 18:00:00 17.64167 C 8.49 g/m*3 17.64 C 15.96667 km/h
116 06-06-2020 19:00:00 18.29167 C 8.2 g/m*3 18.29 C 11.425 km/h
117 06-06-2020 20:00:00 17.20833 C 8.89 g/m*3 17.21 C 5.35 km/h
118 06-06-2020 21:00:00 13.58333 C 8.84 g/m*3 13.58 C 4.8 km/h
119 06-06-2020 22:00:00 11.725 C 8.71 g/m*3 11.73 C 1.73333 km/h
120 06-06-2020 23:00:00 10.59167 C 8.43 g/m*3 10.59 C 1.33333 km/h
121 07-06-2020 00:00:00 10.18333 C 8.2 g/m*3 10.18 C 0.93333 km/h
122 07-06-2020 01:00:00 9.99167 C 8.19 g/m*3 9.99 C 1.2 km/h
123 07-06-2020 02:00:00 10.05833 C 8.14 g/m*3 10.06 C 1.86667 km/h
124 07-06-2020 03:00:00 9.74167 C 7.93 g/m*3 9.74 C 1.86667 km/h
125 07-06-2020 04:00:00 8.425 C 7.54 g/m*3 8.43 C 1.33333 km/h
Sensor: Nr:Datum:Temp:Abs-Feuchte:Windchill:Wind:
Aussen-T/F 126 07-06-2020 05:00:00 8.08333 C 7.62 g/m*3 8.08 C 3.2 km/h
127 07-06-2020 06:00:00 7.70833 C 7.48 g/m*3 7.71 C 1.46667 km/h
128 07-06-2020 07:00:00 7.85 C 7.67 g/m*3 7.85 C 0 km/h
129 07-06-2020 08:00:00 9.98333 C 8.17 g/m*3 9.24 C 6.85833 km/h
130 07-06-2020 09:00:00 13.76667 C 8.38 g/m*3 13.77 C 13.96667 km/h
131 07-06-2020 10:00:00 14.80833 C 8.63 g/m*3 14.81 C 14.23333 km/h
132 07-06-2020 11:00:00 15.09167 C 8.88 g/m*3 15.09 C 9.94167 km/h
133 07-06-2020 12:00:00 15.89167 C 9 g/m*3 15.89 C 12.9 km/h
134 07-06-2020 13:00:00 16.40833 C 8.9 g/m*3 16.41 C 12.49167 km/h
135 07-06-2020 14:00:00 17.06667 C 9.13 g/m*3 17.07 C 10.88333 km/h
136 07-06-2020 15:00:00 18.48333 C 9.34 g/m*3 18.48 C 11.96667 km/h
137 07-06-2020 16:00:00 17.89167 C 9.04 g/m*3 17.89 C 9.28333 km/h
138 07-06-2020 17:00:00 19.675 C 8.12 g/m*3 19.68 C 8.2 km/h
139 07-06-2020 18:00:00 18.925 C 8.06 g/m*3 18.93 C 6.15833 km/h
140 07-06-2020 19:00:00 18.65 C 9.21 g/m*3 18.65 C 1.60833 km/h
141 07-06-2020 20:00:00 16.225 C 9.29 g/m*3 16.23 C 6.70833 km/h
142 07-06-2020 21:00:00 13.73333 C 8.95 g/m*3 13.73 C 4.68333 km/h
143 07-06-2020 22:00:00 11.675 C 8.66 g/m*3 11.68 C 0.66667 km/h
144 07-06-2020 23:00:00 11.25 C 8.64 g/m*3 11.25 C 2.14167 km/h
145 08-06-2020 00:00:00 11.44167 C 8.77 g/m*3 11.44 C 1.2 km/h
146 08-06-2020 01:00:00 11.475 C 9.06 g/m*3 11.48 C 1.06667 km/h
147 08-06-2020 02:00:00 9.91667 C 8.4 g/m*3 9.92 C 2.53333 km/h
148 08-06-2020 03:00:00 8.93333 C 8.07 g/m*3 8.93 C 0.53333 km/h
149 08-06-2020 04:00:00 8.85 C 8.16 g/m*3 8.85 C 0.26667 km/h
150 08-06-2020 05:00:00 8.21667 C 7.83 g/m*3 8.22 C 0.26667 km/h
Sensor: Nr:Datum:Temp:Abs-Feuchte:Windchill:Wind:
Aussen-T/F 151 08-06-2020 06:00:00 8.375 C 8.02 g/m*3 8.38 C 0.66667 km/h
152 08-06-2020 07:00:00 9.75 C 8.66 g/m*3 9.75 C 4.41667 km/h
153 08-06-2020 08:00:00 11.425 C 9.12 g/m*3 11.43 C 4.26667 km/h
154 08-06-2020 09:00:00 13.40833 C 9.63 g/m*3 13.41 C 2.4 km/h
155 08-06-2020 10:00:00 15.5 C 9.95 g/m*3 15.5 C 4.81667 km/h
156 08-06-2020 11:00:00 17.18333 C 9.79 g/m*3 17.18 C 4.53333 km/h
157 08-06-2020 12:00:00 18.41667 C 9.33 g/m*3 18.42 C 8.04167 km/h
158 08-06-2020 13:00:00 19.30833 C 8.88 g/m*3 19.31 C 10.21667 km/h
159 08-06-2020 14:00:00 20.44167 C 8.14 g/m*3 20.44 C 9.15 km/h
160 08-06-2020 15:00:00 20.24167 C 8.44 g/m*3 20.24 C 8.2 km/h
161 08-06-2020 16:00:00 19.475 C 8.92 g/m*3 19.48 C 6.425 km/h
162 08-06-2020 17:00:00 20.60833 C 9.07 g/m*3 20.61 C 2.4 km/h
163 08-06-2020 18:00:00 20.725 C 9.34 g/m*3 20.73 C 6.725 km/h
164 08-06-2020 19:00:00 19.80833 C 9.27 g/m*3 19.81 C 4.55 km/h
165 08-06-2020 20:00:00 18.53333 C 9.49 g/m*3 18.53 C 6.975 km/h
166 08-06-2020 21:00:00 16.11667 C 9.67 g/m*3 16.12 C 8.59167 km/h
167 08-06-2020 22:00:00 13.8 C 9.17 g/m*3 13.8 C 2.66667 km/h
168 08-06-2020 23:00:00 12.05833 C 8.82 g/m*3 12.06 C 4.26667 km/h
169 09-06-2020 00:00:00 11.575 C 8.86 g/m*3 11.58 C 5.475 km/h
170 09-06-2020 01:00:00 10.75833 C 8.71 g/m*3 10.76 C 0.8 km/h
171 09-06-2020 02:00:00 9.975 C 8.55 g/m*3 9.98 C 0.13333 km/h
172 09-06-2020 03:00:00 9.8 C 8.61 g/m*3 9.8 C 0.53333 km/h
173 09-06-2020 04:00:00 9.89167 C 8.78 g/m*3 9.89 C 2.26667 km/h
174 09-06-2020 05:00:00 10.7 C 9.33 g/m*3 10.7 C 3.2 km/h
175 09-06-2020 06:00:00 11.39167 C 9.72 g/m*3 11.39 C 1.06667 km/h
Sensor: Nr:Datum:Temp:Abs-Feuchte:Windchill:Wind:
Aussen-T/F 176 09-06-2020 07:00:00 11.85833 C 9.86 g/m*3 11.86 C 1.46667 km/h
177 09-06-2020 08:00:00 12.5 C 10.05 g/m*3 12.5 C 3.60833 km/h
178 09-06-2020 09:00:00 13.3 C 10.21 g/m*3 13.3 C 4.66667 km/h
179 09-06-2020 10:00:00 15.29167 C 10.65 g/m*3 15.29 C 5.08333 km/h
180 09-06-2020 11:00:00 16.95 C 10.93 g/m*3 16.95 C 8.88333 km/h
181 09-06-2020 12:00:00 18.35 C 11.16 g/m*3 18.35 C 9.68333 km/h
182 09-06-2020 13:00:00 18.45 C 12.76 g/m*3 18.45 C 5.9 km/h
183 09-06-2020 14:00:00 18.38333 C 12.18 g/m*3 18.38 C 10.75 km/h
184 09-06-2020 15:00:00 17.875 C 11.43 g/m*3 17.88 C 8.58333 km/h
185 09-06-2020 16:00:00 15.875 C 12.08 g/m*3 15.88 C 3.20833 km/h
186 09-06-2020 17:00:00 16.05833 C 12.64 g/m*3 16.06 C 1.06667 km/h
187 09-06-2020 18:00:00 16.35 C 12.77 g/m*3 16.35 C 0.53333 km/h
188 09-06-2020 19:00:00 15.59167 C 12.23 g/m*3 15.59 C 2.26667 km/h
189 09-06-2020 20:00:00 14.39167 C 11.54 g/m*3 14.39 C 5.75 km/h
190 09-06-2020 21:00:00 14.13333 C 11.55 g/m*3 14.13 C 5.33333 km/h
191 09-06-2020 22:00:00 13.4 C 11.02 g/m*3 13.4 C 4.26667 km/h
192 09-06-2020 23:00:00 12.96667 C 10.81 g/m*3 12.97 C 4.13333 km/h
193 10-06-2020 00:00:00 12.9 C 10.79 g/m*3 12.9 C 0.8 km/h
194 10-06-2020 01:00:00 12.56667 C 10.58 g/m*3 12.57 C 0.66667 km/h
195 10-06-2020 02:00:00 12.30833 C 10.43 g/m*3 12.31 C 0.66667 km/h
196 10-06-2020 03:00:00 12.56667 C 10.6 g/m*3 12.57 C 0 km/h
197 10-06-2020 04:00:00 12.6 C 10.62 g/m*3 12.6 C 0.13333 km/h
198 10-06-2020 05:00:00 12.68333 C 10.68 g/m*3 12.68 C 0 km/h
199 10-06-2020 06:00:00 12.95 C 10.97 g/m*3 12.95 C 0.13333 km/h
200 10-06-2020 07:00:00 13.375 C 11.21 g/m*3 13.38 C 0.4 km/h
Sensor: Nr:Datum:Temp:Abs-Feuchte:Windchill:Wind:
Aussen-T/F 201 10-06-2020 08:00:00 13.85833 C 11.46 g/m*3 13.86 C 0.26667 km/h
202 10-06-2020 09:00:00 14.83333 C 11.68 g/m*3 14.83 C 2.53333 km/h
203 10-06-2020 10:00:00 15.54167 C 11.58 g/m*3 15.54 C 3.06667 km/h
204 10-06-2020 11:00:00 15.75 C 11.63 g/m*3 15.75 C 1.73333 km/h
205 10-06-2020 12:00:00 15.475 C 11.31 g/m*3 15.48 C 8.06667 km/h
206 10-06-2020 13:00:00 15.55 C 11.25 g/m*3 15.55 C 8.475 km/h
207 10-06-2020 14:00:00 16.36667 C 11.02 g/m*3 16.37 C 4.13333 km/h
208 10-06-2020 15:00:00 17.1 C 11.1 g/m*3 17.1 C 1.20833 km/h
209 10-06-2020 16:00:00 18.65 C 11.47 g/m*3 18.65 C 3.6 km/h
210 10-06-2020 17:00:00 19.625 C 11.44 g/m*3 19.63 C 4.40833 km/h
211 10-06-2020 18:00:00 19.81667 C 10.94 g/m*3 19.82 C 7.65 km/h
212 10-06-2020 19:00:00 19.275 C 11.97 g/m*3 19.27 C 1.34167 km/h
213 10-06-2020 20:00:00 18.49167 C 12.47 g/m*3 18.49 C 0.8 km/h
214 10-06-2020 21:00:00 16.675 C 11.26 g/m*3 16.68 C 4.40833 km/h
215 10-06-2020 22:00:00 15.41667 C 10.78 g/m*3 15.42 C 2.66667 km/h
216 10-06-2020 23:00:00 15.225 C 11.02 g/m*3 15.23 C 1.875 km/h
217 11-06-2020 00:00:00 15.3 C 11.25 g/m*3 15.3 C 1.73333 km/h
218 11-06-2020 01:00:00 14.2 C 11.02 g/m*3 14.2 C 0.53333 km/h
219 11-06-2020 02:00:00 13.84167 C 11.03 g/m*3 13.84 C 0 km/h
220 11-06-2020 03:00:00 13.38333 C 10.8 g/m*3 13.38 C 0.4 km/h
221 11-06-2020 04:00:00 12.775 C 10.49 g/m*3 12.78 C 0.4 km/h
222 11-06-2020 05:00:00 12.35833 C 10.27 g/m*3 12.36 C 0.26667 km/h
223 11-06-2020 06:00:00 12.74167 C 10.6 g/m*3 12.74 C 0 km/h
224 11-06-2020 07:00:00 13.425 C 11.09 g/m*3 13.43 C 0.26667 km/h
225 11-06-2020 08:00:00 14.05 C 11.46 g/m*3 14.05 C 0 km/h
Sensor: Nr:Datum:Temp:Abs-Feuchte:Windchill:Wind:
Aussen-T/F 226 11-06-2020 09:00:00 14.73333 C 11.75 g/m*3 14.73 C 1.6 km/h
227 11-06-2020 10:00:00 15.5 C 12.03 g/m*3 15.5 C 1.86667 km/h
228 11-06-2020 11:00:00 16.90833 C 12.27 g/m*3 16.91 C 4.13333 km/h
229 11-06-2020 12:00:00 17.45 C 11.87 g/m*3 17.45 C 4.54167 km/h
230 11-06-2020 13:00:00 18.38333 C 11.94 g/m*3 18.38 C 5.76667 km/h
231 11-06-2020 14:00:00 19.3 C 11.79 g/m*3 19.3 C 6.98333 km/h
232 11-06-2020 15:00:00 18.73333 C 12.03 g/m*3 18.73 C 3.21667 km/h
233 11-06-2020 16:00:00 18.99167 C 11.05 g/m*3 18.99 C 6.28333 km/h
234 11-06-2020 17:00:00 19.18333 C 11.33 g/m*3 19.18 C 4.68333 km/h
235 11-06-2020 18:00:00 18.20833 C 12.45 g/m*3 18.21 C 0.8 km/h
236 11-06-2020 19:00:00 17.66667 C 12.01 g/m*3 17.67 C 2.13333 km/h
237 11-06-2020 20:00:00 17.14167 C 12.37 g/m*3 17.14 C 0 km/h
238 11-06-2020 21:00:00 15.93333 C 11.65 g/m*3 15.93 C 0 km/h
239 11-06-2020 22:00:00 14.25833 C 10.93 g/m*3 14.26 C 1.73333 km/h
240 11-06-2020 23:00:00 13.35833 C 10.62 g/m*3 13.36 C 0.66667 km/h
241 12-06-2020 00:00:00 12.45 C 10.19 g/m*3 12.45 C 0 km/h
242 12-06-2020 01:00:00 11.73333 C 9.85 g/m*3 11.73 C 0 km/h
243 12-06-2020 02:00:00 11.2 C 9.62 g/m*3 11.2 C 0 km/h
244 12-06-2020 03:00:00 10.61667 C 9.28 g/m*3 10.62 C 0 km/h
245 12-06-2020 04:00:00 10.34167 C 9.19 g/m*3 10.34 C 0 km/h
246 12-06-2020 05:00:00 10.80833 C 9.51 g/m*3 10.81 C 0 km/h
247 12-06-2020 06:00:00 11.74167 C 10.17 g/m*3 11.74 C 1.2 km/h
248 12-06-2020 07:00:00 12.51667 C 10.68 g/m*3 12.52 C 0.13333 km/h
249 12-06-2020 08:00:00 13.81667 C 11.56 g/m*3 13.82 C 1.86667 km/h
250 12-06-2020 09:00:00 16.06667 C 12.49 g/m*3 16.07 C 7.525 km/h
Sensor: Nr:Datum:Temp:Abs-Feuchte:Windchill:Wind:
Aussen-T/F 251 12-06-2020 10:00:00 18.14167 C 12.88 g/m*3 18.14 C 11.29167 km/h
252 12-06-2020 11:00:00 20.41667 C 13.52 g/m*3 20.42 C 8.33333 km/h
253 12-06-2020 12:00:00 22.34167 C 13.92 g/m*3 22.34 C 10.08333 km/h
254 12-06-2020 13:00:00 24.48333 C 13.15 g/m*3 24.48 C 11.95833 km/h
255 12-06-2020 14:00:00 26.18333 C 12.22 g/m*3 26.18 C 10.89167 km/h
256 12-06-2020 15:00:00 27.825 C 11.85 g/m*3 27.83 C 13.03333 km/h
257 12-06-2020 16:00:00 29.69167 C 11.63 g/m*3 29.69 C 11.55833 km/h
258 12-06-2020 17:00:00 29.5 C 11.36 g/m*3 29.5 C 12.49167 km/h
259 12-06-2020 18:00:00 29.59167 C 11.4 g/m*3 29.59 C 10.75833 km/h
260 12-06-2020 19:00:00 28.31667 C 12.04 g/m*3 28.32 C 6.84167 km/h
261 12-06-2020 20:00:00 26.89167 C 13.73 g/m*3 26.89 C 4.53333 km/h
262 12-06-2020 21:00:00 22.31667 C 13.19 g/m*3 22.32 C 5.35833 km/h
263 12-06-2020 22:00:00 20.35833 C 12.94 g/m*3 20.36 C 4.14167 km/h
264 12-06-2020 23:00:00 18.75 C 12.79 g/m*3 18.75 C 1.2 km/h
265 13-06-2020 00:00:00 17.93333 C 12.61 g/m*3 17.93 C 4.70833 km/h
266 13-06-2020 01:00:00 19.29167 C 12.85 g/m*3 19.29 C 13.29167 km/h
267 13-06-2020 02:00:00 19.25 C 11.91 g/m*3 19.25 C 6.83333 km/h
268 13-06-2020 03:00:00 18.31667 C 11.69 g/m*3 18.32 C 3.2 km/h
269 13-06-2020 04:00:00 17.41667 C 11.88 g/m*3 17.42 C 2.53333 km/h
270 13-06-2020 05:00:00 16.55833 C 11.87 g/m*3 16.56 C 0.8 km/h
271 13-06-2020 06:00:00 16.10833 C 12 g/m*3 16.11 C 0.26667 km/h
272 13-06-2020 07:00:00 16.85833 C 12.41 g/m*3 16.86 C 2.41667 km/h
273 13-06-2020 08:00:00 17.51667 C 12.82 g/m*3 17.52 C 0.4 km/h
274 13-06-2020 09:00:00 20.375 C 13.54 g/m*3 20.38 C 5.35 km/h
275 13-06-2020 10:00:00 20.375 C 13.73 g/m*3 20.38 C 4.675 km/h
Sensor: Nr:Datum:Temp:Abs-Feuchte:Windchill:Wind:
Aussen-T/F 276 13-06-2020 11:00:00 20.69167 C 13.09 g/m*3 20.69 C 6.29167 km/h
277 13-06-2020 12:00:00 20.90833 C 13.61 g/m*3 20.91 C 1.86667 km/h
278 13-06-2020 13:00:00 20.34167 C 14.31 g/m*3 20.34 C 0 km/h
279 13-06-2020 14:00:00 21.53333 C 13.71 g/m*3 21.53 C 2.26667 km/h
280 13-06-2020 15:00:00 23.25 C 13.52 g/m*3 23.25 C 6.55833 km/h
281 13-06-2020 16:00:00 25.75 C 13.94 g/m*3 25.75 C 7.925 km/h
282 13-06-2020 17:00:00 27.09167 C 12.22 g/m*3 27.09 C 6.175 km/h
283 13-06-2020 18:00:00 28.60833 C 11.15 g/m*3 28.61 C 7.925 km/h
284 13-06-2020 19:00:00 26.675 C 11.67 g/m*3 26.68 C 6.85 km/h
285 13-06-2020 20:00:00 24.60833 C 12.37 g/m*3 24.61 C 2.80833 km/h
286 13-06-2020 21:00:00 22.54167 C 12.53 g/m*3 22.54 C 5.35833 km/h
287 13-06-2020 22:00:00 20.99167 C 12.73 g/m*3 20.99 C 6.84167 km/h
288 13-06-2020 23:00:00 20 C 12.46 g/m*3 20 C 3.06667 km/h
289 14-06-2020 00:00:00 18.375 C 12.38 g/m*3 18.38 C 1.33333 km/h
290 14-06-2020 01:00:00 17.81667 C 12.53 g/m*3 17.82 C 0 km/h
291 14-06-2020 02:00:00 17.675 C 12.71 g/m*3 17.68 C 0 km/h
292 14-06-2020 03:00:00 17.25833 C 12.47 g/m*3 17.26 C 0 km/h
293 14-06-2020 04:00:00 17.39167 C 12.38 g/m*3 17.39 C 4.825 km/h
294 14-06-2020 05:00:00 17.71667 C 12.45 g/m*3 17.72 C 5.33333 km/h
295 14-06-2020 06:00:00 17.80833 C 12.53 g/m*3 17.81 C 7.525 km/h
296 14-06-2020 07:00:00 18.56667 C 12.79 g/m*3 18.57 C 3.86667 km/h
297 14-06-2020 08:00:00 19.075 C 12.89 g/m*3 19.08 C 2.93333 km/h
298 14-06-2020 09:00:00 19.05833 C 13.48 g/m*3 19.06 C 1.73333 km/h
299 14-06-2020 10:00:00 18.86667 C 13.1 g/m*3 18.87 C 3.875 km/h
300 14-06-2020 11:00:00 18.95833 C 13.06 g/m*3 18.96 C 7.125 km/h
Sensor: Nr:Datum:Temp:Abs-Feuchte:Windchill:Wind:
Aussen-T/F 301 14-06-2020 12:00:00 19.53333 C 12.61 g/m*3 19.53 C 8.18333 km/h
302 14-06-2020 13:00:00 19.725 C 12.92 g/m*3 19.73 C 8.75833 km/h
303 14-06-2020 14:00:00 20.2 C 13.07 g/m*3 20.2 C 5.21667 km/h
304 14-06-2020 15:00:00 20.61667 C 13.15 g/m*3 20.62 C 1.6 km/h
305 14-06-2020 16:00:00 21.19167 C 14.08 g/m*3 21.19 C 0.13333 km/h
306 14-06-2020 17:00:00 21.33333 C 12.82 g/m*3 21.33 C 3.875 km/h
307 14-06-2020 18:00:00 20.58333 C 13.48 g/m*3 20.58 C 4.95 km/h
308 14-06-2020 19:00:00 19.84167 C 13.64 g/m*3 19.84 C 4.025 km/h
309 14-06-2020 20:00:00 18.65833 C 13.4 g/m*3 18.66 C 5.9 km/h
310 14-06-2020 21:00:00 17.8 C 13.38 g/m*3 17.8 C 3.60833 km/h
311 14-06-2020 22:00:00 17.825 C 13.3 g/m*3 17.83 C 2.94167 km/h
312 14-06-2020 23:00:00 17.225 C 13.19 g/m*3 17.23 C 1.33333 km/h
313 15-06-2020 00:00:00 17.28333 C 12.87 g/m*3 17.28 C 5.48333 km/h
314 15-06-2020 01:00:00 16.86667 C 12.49 g/m*3 16.87 C 2.66667 km/h
315 15-06-2020 02:00:00 16.625 C 12.56 g/m*3 16.63 C 2.13333 km/h
316 15-06-2020 03:00:00 16.575 C 12.55 g/m*3 16.58 C 1.6 km/h
317 15-06-2020 04:00:00 16.64167 C 12.66 g/m*3 16.64 C 4.40833 km/h
318 15-06-2020 05:00:00 16.54167 C 12.66 g/m*3 16.54 C 2.80833 km/h
319 15-06-2020 06:00:00 16.6 C 12.71 g/m*3 16.6 C 1.6 km/h
320 15-06-2020 07:00:00 16.80833 C 12.87 g/m*3 16.81 C 1.2 km/h
321 15-06-2020 08:00:00 17.54167 C 13.15 g/m*3 17.54 C 3.6 km/h
322 15-06-2020 09:00:00 18.325 C 13.34 g/m*3 18.33 C 5.35 km/h
323 15-06-2020 10:00:00 19.40833 C 13.7 g/m*3 19.41 C 6.56667 km/h
324 15-06-2020 11:00:00 20.11667 C 13.62 g/m*3 20.12 C 5.48333 km/h
325 15-06-2020 12:00:00 20.575 C 12.52 g/m*3 20.58 C 6.575 km/h
Sensor: Nr:Datum:Temp:Abs-Feuchte:Windchill:Wind:
Aussen-T/F 326 15-06-2020 13:00:00 20.44167 C 12.03 g/m*3 20.44 C 6.30833 km/h
327 15-06-2020 14:00:00 20.51667 C 12.26 g/m*3 20.52 C 3.075 km/h
328 15-06-2020 15:00:00 20.55833 C 13.08 g/m*3 20.56 C 0 km/h
329 15-06-2020 16:00:00 20.98333 C 12.93 g/m*3 20.98 C 0 km/h
330 15-06-2020 17:00:00 21.1 C 12.23 g/m*3 21.1 C 2.88 km/h
331 15-06-2020 18:00:00 21.29167 C 12.31 g/m*3 21.29 C 0.8 km/h
332 15-06-2020 19:00:00 21.325 C 13.27 g/m*3 21.33 C 0.53333 km/h
333 15-06-2020 20:00:00 19.58333 C 12.75 g/m*3 19.58 C 2.93333 km/h
334 15-06-2020 21:00:00 18.6 C 12.47 g/m*3 18.6 C 4.13333 km/h
335 15-06-2020 22:00:00 17.64167 C 12.34 g/m*3 17.64 C 0.26667 km/h
336 15-06-2020 23:00:00 17.16667 C 12.34 g/m*3 17.17 C 0 km/h
337 16-06-2020 00:00:00 17.11667 C 12.6 g/m*3 17.12 C 0 km/h
338 16-06-2020 01:00:00 16.875 C 13.05 g/m*3 16.88 C 0 km/h
339 16-06-2020 02:00:00 16.45833 C 13.01 g/m*3 16.46 C 0 km/h
340 16-06-2020 03:00:00 16.2 C 12.97 g/m*3 16.2 C 0 km/h
341 16-06-2020 04:00:00 16.11667 C 13.03 g/m*3 16.12 C 0 km/h
342 16-06-2020 05:00:00 16.05833 C 12.99 g/m*3 16.06 C 0.26667 km/h
343 16-06-2020 06:00:00 15.94167 C 12.98 g/m*3 15.94 C 0.4 km/h
344 16-06-2020 07:00:00 16.18333 C 13.23 g/m*3 16.18 C 0.13333 km/h
345 16-06-2020 08:00:00 16.68333 C 13.63 g/m*3 16.68 C 2.13333 km/h
346 16-06-2020 09:00:00 17.125 C 14 g/m*3 17.13 C 2.66667 km/h
347 16-06-2020 10:00:00 17.93333 C 14.51 g/m*3 17.93 C 0.26667 km/h
348 16-06-2020 11:00:00 19.01667 C 14.61 g/m*3 19.02 C 1.86667 km/h
349 16-06-2020 12:00:00 19.91667 C 14.26 g/m*3 19.92 C 3.73333 km/h
350 16-06-2020 13:00:00 20.48333 C 13.87 g/m*3 20.48 C 6.55833 km/h
Sensor: Nr:Datum:Temp:Abs-Feuchte:Windchill:Wind:
Aussen-T/F 351 16-06-2020 14:00:00 21.13333 C 14.25 g/m*3 21.13 C 2.14167 km/h
352 16-06-2020 15:00:00 21.375 C 14.38 g/m*3 21.38 C 3.34167 km/h
353 16-06-2020 16:00:00 19.025 C 13.79 g/m*3 19.02 C 2.8 km/h
354 16-06-2020 17:00:00 18.39167 C 13.98 g/m*3 18.39 C 0.53333 km/h
355 16-06-2020 18:00:00 18.83333 C 14.33 g/m*3 18.83 C 2.4 km/h
356 16-06-2020 19:00:00 20.31667 C 14.92 g/m*3 20.32 C 6.13333 km/h
357 16-06-2020 20:00:00 20.65 C 14.66 g/m*3 20.65 C 2.01667 km/h
358 16-06-2020 21:00:00 19.10833 C 14 g/m*3 19.11 C 2.53333 km/h
359 16-06-2020 22:00:00 16.69167 C 12.83 g/m*3 16.69 C 1.46667 km/h
360 16-06-2020 23:00:00 15.40833 C 12.17 g/m*3 15.41 C 0.13333 km/h
361 17-06-2020 00:00:00 14.6 C 11.77 g/m*3 14.6 C 0 km/h
362 17-06-2020 01:00:00 14 C 11.46 g/m*3 14 C 0 km/h
363 17-06-2020 02:00:00 14.46667 C 11.91 g/m*3 14.47 C 0.26667 km/h
364 17-06-2020 03:00:00 14.55 C 11.99 g/m*3 14.55 C 0.8 km/h
365 17-06-2020 04:00:00 14.21667 C 11.85 g/m*3 14.22 C 0 km/h
366 17-06-2020 05:00:00 14.16667 C 11.82 g/m*3 14.17 C 0 km/h
367 17-06-2020 06:00:00 14.34167 C 11.95 g/m*3 14.34 C 0 km/h
368 17-06-2020 07:00:00 14.61667 C 12.15 g/m*3 14.62 C 0 km/h
369 17-06-2020 08:00:00 14.91667 C 12.38 g/m*3 14.92 C 0 km/h
370 17-06-2020 09:00:00 15.43333 C 12.77 g/m*3 15.43 C 0 km/h
371 17-06-2020 10:00:00 16.63333 C 13.44 g/m*3 16.63 C 2 km/h
372 17-06-2020 11:00:00 18.50833 C 13.86 g/m*3 18.51 C 5.34167 km/h
373 17-06-2020 12:00:00 20.51667 C 14.1 g/m*3 20.52 C 5.35 km/h
374 17-06-2020 13:00:00 21.81667 C 14.26 g/m*3 21.82 C 5.08333 km/h
375 17-06-2020 14:00:00 22.75 C 14.25 g/m*3 22.75 C 3.6 km/h
Sensor: Nr:Datum:Temp:Abs-Feuchte:Windchill:Wind:
Aussen-T/F 376 17-06-2020 15:00:00 23.05833 C 15.09 g/m*3 23.06 C 5.35 km/h
377 17-06-2020 16:00:00 20.49167 C 15.93 g/m*3 20.49 C 2.4 km/h
378 17-06-2020 17:00:00 21.50833 C 16.6 g/m*3 21.51 C 1.06667 km/h
379 17-06-2020 18:00:00 23.34167 C 15.4 g/m*3 23.34 C 3.6 km/h
380 17-06-2020 19:00:00 19.65 C 13.91 g/m*3 19.65 C 4.84167 km/h
381 17-06-2020 20:00:00 17.175 C 13.49 g/m*3 17.18 C 1.06667 km/h
382 17-06-2020 21:00:00 16.54167 C 13.28 g/m*3 16.54 C 4.13333 km/h
383 17-06-2020 22:00:00 16.18333 C 13.09 g/m*3 16.18 C 1.73333 km/h
384 17-06-2020 23:00:00 15.53333 C 12.58 g/m*3 15.53 C 4.41667 km/h
385 18-06-2020 00:00:00 15.11667 C 12.35 g/m*3 15.12 C 1.06667 km/h
386 18-06-2020 01:00:00 14.76667 C 12.08 g/m*3 14.77 C 2.93333 km/h
387 18-06-2020 02:00:00 14.41667 C 11.87 g/m*3 14.42 C 3.20833 km/h
388 18-06-2020 03:00:00 14.4 C 11.87 g/m*3 14.4 C 6.56667 km/h
389 18-06-2020 04:00:00 14.3 C 11.79 g/m*3 14.3 C 4.14167 km/h
390 18-06-2020 05:00:00 14.1 C 11.65 g/m*3 14.1 C 2.53333 km/h
391 18-06-2020 06:00:00 13.96667 C 11.56 g/m*3 13.97 C 4.13333 km/h
392 18-06-2020 07:00:00 14.34167 C 11.82 g/m*3 14.34 C 2.13333 km/h
393 18-06-2020 08:00:00 15.325 C 12.22 g/m*3 15.33 C 4.95833 km/h
394 18-06-2020 09:00:00 16.45833 C 12.3 g/m*3 16.46 C 6.84167 km/h
395 18-06-2020 10:00:00 17.675 C 12.44 g/m*3 17.68 C 6.85 km/h
396 18-06-2020 11:00:00 18.75 C 12.5 g/m*3 18.75 C 6.175 km/h
397 18-06-2020 12:00:00 19.71667 C 12.32 g/m*3 19.72 C 10.21667 km/h
398 18-06-2020 13:00:00 20.79167 C 11.99 g/m*3 20.79 C 12.9 km/h
399 18-06-2020 14:00:00 22.2 C 12.04 g/m*3 22.2 C 11.03333 km/h
400 18-06-2020 15:00:00 23.54167 C 11.68 g/m*3 23.54 C 10.35 km/h
Sensor: Nr:Datum:Temp:Abs-Feuchte:Windchill:Wind:
Aussen-T/F 401 18-06-2020 16:00:00 25.09167 C 11.49 g/m*3 25.09 C 11.56667 km/h
402 18-06-2020 17:00:00 24.875 C 11.28 g/m*3 24.88 C 15.83333 km/h
403 18-06-2020 18:00:00 23.86667 C 10.89 g/m*3 23.87 C 15.03333 km/h
404 18-06-2020 19:00:00 23.89167 C 11.55 g/m*3 23.89 C 10.76667 km/h
405 18-06-2020 20:00:00 23.2 C 11.36 g/m*3 23.2 C 9.95 km/h
406 18-06-2020 21:00:00 20.63333 C 12.46 g/m*3 20.63 C 3.875 km/h
407 18-06-2020 22:00:00 17.20833 C 11.79 g/m*3 17.21 C 5.06667 km/h
408 18-06-2020 23:00:00 15.73333 C 11.55 g/m*3 15.73 C 0.93333 km/h
409 19-06-2020 00:00:00 15.21667 C 11.5 g/m*3 15.22 C 1.875 km/h
410 19-06-2020 01:00:00 14.68333 C 11.17 g/m*3 14.68 C 0.26667 km/h
411 19-06-2020 02:00:00 13.525 C 10.73 g/m*3 13.53 C 0.53333 km/h
412 19-06-2020 03:00:00 12.875 C 10.47 g/m*3 12.88 C 0.4 km/h
413 19-06-2020 04:00:00 12.33333 C 10.22 g/m*3 12.33 C 1.33333 km/h
414 19-06-2020 05:00:00 12.225 C 10.23 g/m*3 12.23 C 1.06667 km/h
415 19-06-2020 06:00:00 12.575 C 10.49 g/m*3 12.58 C 0.66667 km/h
416 19-06-2020 07:00:00 13.64167 C 11.21 g/m*3 13.64 C 0.53333 km/h
417 19-06-2020 08:00:00 15.75 C 11.83 g/m*3 15.75 C 8.475 km/h
418 19-06-2020 09:00:00 17.55 C 11.91 g/m*3 17.55 C 9.81667 km/h
419 19-06-2020 10:00:00 19.15833 C 12.35 g/m*3 19.16 C 5.75 km/h
420 19-06-2020 11:00:00 20.85 C 12.12 g/m*3 20.85 C 9.94167 km/h
421 19-06-2020 12:00:00 21.90833 C 11.94 g/m*3 21.91 C 11.96667 km/h
422 19-06-2020 13:00:00 21.50833 C 12.14 g/m*3 21.51 C 6.30833 km/h
423 19-06-2020 14:00:00 22.34167 C 11.58 g/m*3 22.34 C 8.71667 km/h
424 19-06-2020 15:00:00 22.26667 C 11.45 g/m*3 22.27 C 13.96667 km/h
425 19-06-2020 16:00:00 16.48333 C 12.44 g/m*3 16.48 C 9.4 km/h
Sensor: Nr:Datum:Temp:Abs-Feuchte:Windchill:Wind:
Aussen-T/F 426 19-06-2020 17:00:00 16.29167 C 13.14 g/m*3 16.29 C 10.60833 km/h
427 19-06-2020 18:00:00 18.11667 C 14.22 g/m*3 18.12 C 4.40833 km/h
428 19-06-2020 19:00:00 18.90833 C 14.32 g/m*3 18.91 C 3.06667 km/h
429 19-06-2020 20:00:00 18.16667 C 14.01 g/m*3 18.17 C 6.05833 km/h
430 19-06-2020 21:00:00 16.075 C 12.53 g/m*3 16.08 C 7.40833 km/h
431 19-06-2020 22:00:00 14.81667 C 11.89 g/m*3 14.82 C 3.73333 km/h
432 19-06-2020 23:00:00 14.175 C 11.54 g/m*3 14.18 C 0.53333 km/h
433 20-06-2020 00:00:00 13.58333 C 11.18 g/m*3 13.58 C 0.13333 km/h
434 20-06-2020 01:00:00 13.475 C 11.21 g/m*3 13.48 C 0.13333 km/h
435 20-06-2020 02:00:00 13.35833 C 11.13 g/m*3 13.36 C 0.66667 km/h
436 20-06-2020 03:00:00 12.95833 C 10.86 g/m*3 12.96 C 0 km/h
437 20-06-2020 04:00:00 12.59167 C 10.65 g/m*3 12.59 C 0.4 km/h
438 20-06-2020 05:00:00 12.475 C 10.63 g/m*3 12.48 C 0.66667 km/h
439 20-06-2020 06:00:00 12.64167 C 10.76 g/m*3 12.64 C 3.74167 km/h
440 20-06-2020 07:00:00 13.05 C 11.03 g/m*3 13.05 C 4.00833 km/h
441 20-06-2020 08:00:00 14.125 C 11.87 g/m*3 14.13 C 0.4 km/h
442 20-06-2020 09:00:00 15.35833 C 12.66 g/m*3 15.36 C 0.8 km/h
443 20-06-2020 10:00:00 17.56667 C 13.3 g/m*3 17.57 C 2.275 km/h
444 20-06-2020 11:00:00 20.11667 C 12.86 g/m*3 20.12 C 6.3 km/h
445 20-06-2020 12:00:00 19.76667 C 12.8 g/m*3 19.77 C 4.66667 km/h
446 20-06-2020 13:00:00 19.59167 C 13.27 g/m*3 19.59 C 4 km/h
447 20-06-2020 14:00:00 19.74167 C 12.84 g/m*3 19.74 C 3.075 km/h
448 20-06-2020 15:00:00 20.20833 C 12.81 g/m*3 20.21 C 2.8 km/h
449 20-06-2020 16:00:00 22.89167 C 12.07 g/m*3 22.89 C 6.96667 km/h
450 20-06-2020 17:00:00 22.33333 C 11.36 g/m*3 22.33 C 5.90833 km/h
Sensor: Nr:Datum:Temp:Abs-Feuchte:Windchill:Wind:
Aussen-T/F 451 20-06-2020 18:00:00 21.06667 C 12.86 g/m*3 21.07 C 7.65 km/h
452 20-06-2020 19:00:00 19.625 C 12.88 g/m*3 19.63 C 5.9 km/h
453 20-06-2020 20:00:00 19.04167 C 13.38 g/m*3 19.04 C 1.86667 km/h
454 20-06-2020 21:00:00 18.36667 C 13.15 g/m*3 18.37 C 2.93333 km/h
455 20-06-2020 22:00:00 17 C 12.64 g/m*3 17 C 2.53333 km/h
456 20-06-2020 23:00:00 15.69167 C 11.88 g/m*3 15.69 C 2.26667 km/h
457 21-06-2020 00:00:00 14.48333 C 11.37 g/m*3 14.48 C 0.66667 km/h
458 21-06-2020 01:00:00 13.80833 C 11.14 g/m*3 13.81 C 0.53333 km/h
459 21-06-2020 02:00:00 13.24167 C 10.84 g/m*3 13.24 C 0.8 km/h
460 21-06-2020 03:00:00 12.53333 C 10.46 g/m*3 12.53 C 0.13333 km/h
461 21-06-2020 04:00:00 11.80833 C 10.03 g/m*3 11.81 C 0 km/h
462 21-06-2020 05:00:00 12.2 C 10.36 g/m*3 12.2 C 0.93333 km/h
463 21-06-2020 06:00:00 12.36667 C 10.48 g/m*3 12.37 C 0.26667 km/h
464 21-06-2020 07:00:00 12.7 C 10.74 g/m*3 12.7 C 4.26667 km/h
465 21-06-2020 08:00:00 13.33333 C 11.21 g/m*3 13.33 C 2.13333 km/h
466 21-06-2020 09:00:00 14.425 C 11.89 g/m*3 14.43 C 0 km/h
467 21-06-2020 10:00:00 17.05 C 13.35 g/m*3 17.05 C 0 km/h
468 21-06-2020 11:00:00 21.25 C 12.84 g/m*3 21.25 C 1.06667 km/h
469 21-06-2020 12:00:00 22.64167 C 11.85 g/m*3 22.64 C 8.61667 km/h
470 21-06-2020 13:00:00 23.65833 C 11.45 g/m*3 23.66 C 8.60833 km/h
471 21-06-2020 14:00:00 24.55 C 11.65 g/m*3 24.55 C 10.34167 km/h
472 21-06-2020 15:00:00 26.325 C 11.59 g/m*3 26.33 C 11.16667 km/h
473 21-06-2020 16:00:00 27.7 C 11.37 g/m*3 27.7 C 13.28333 km/h
474 21-06-2020 17:00:00 27.85 C 11.01 g/m*3 27.85 C 13.16667 km/h
475 21-06-2020 18:00:00 26.84167 C 11.57 g/m*3 26.84 C 10.75833 km/h
Sensor: Nr:Datum:Temp:Abs-Feuchte:Windchill:Wind:
Aussen-T/F 476 21-06-2020 19:00:00 25.79167 C 12.73 g/m*3 25.79 C 7 km/h
477 21-06-2020 20:00:00 23.65 C 13.86 g/m*3 23.65 C 3.6 km/h
478 21-06-2020 21:00:00 22.14167 C 13 g/m*3 22.14 C 4.40833 km/h
479 21-06-2020 22:00:00 19.11667 C 12.44 g/m*3 19.12 C 5.2 km/h
480 21-06-2020 23:00:00 17.8 C 12.45 g/m*3 17.8 C 2.93333 km/h
481 22-06-2020 00:00:00 17.38333 C 12.46 g/m*3 17.38 C 0 km/h
482 22-06-2020 01:00:00 16.58333 C 12.09 g/m*3 16.58 C 3.6 km/h
483 22-06-2020 02:00:00 16.1 C 11.94 g/m*3 16.1 C 2.4 km/h
484 22-06-2020 03:00:00 15.45833 C 11.73 g/m*3 15.46 C 1.33333 km/h
485 22-06-2020 04:00:00 16.00833 C 12.05 g/m*3 16.01 C 0.8 km/h
486 22-06-2020 05:00:00 16.46667 C 11.89 g/m*3 16.47 C 9.8 km/h
487 22-06-2020 06:00:00 15.53333 C 11.28 g/m*3 15.53 C 5.075 km/h
488 22-06-2020 07:00:00 15.29167 C 11.06 g/m*3 15.29 C 5.375 km/h
489 22-06-2020 08:00:00 15.24167 C 11.12 g/m*3 15.24 C 4.41667 km/h
490 22-06-2020 09:00:00 16.175 C 11.46 g/m*3 16.18 C 4.54167 km/h
491 22-06-2020 10:00:00 16.90833 C 11.64 g/m*3 16.91 C 7.11667 km/h
492 22-06-2020 11:00:00 17.59167 C 12 g/m*3 17.59 C 6.56667 km/h
493 22-06-2020 12:00:00 18.625 C 12.31 g/m*3 18.63 C 5.88333 km/h
494 22-06-2020 13:00:00 19.825 C 12.67 g/m*3 19.83 C 8.05833 km/h
495 22-06-2020 14:00:00 21.15 C 12.58 g/m*3 21.15 C 9.95833 km/h
496 22-06-2020 15:00:00 22.96667 C 12.33 g/m*3 22.97 C 9.825 km/h
497 22-06-2020 16:00:00 23.14167 C 11.85 g/m*3 23.14 C 8.74167 km/h
498 22-06-2020 17:00:00 24.55833 C 10.14 g/m*3 24.56 C 9.80833 km/h
499 22-06-2020 18:00:00 25.1 C 9.16 g/m*3 25.1 C 9.81667 km/h
500 22-06-2020 19:00:00 24.74167 C 9.57 g/m*3 24.74 C 6.95833 km/h
Sensor: Nr:Datum:Temp:Abs-Feuchte:Windchill:Wind:
Aussen-T/F 501 22-06-2020 20:00:00 23.83333 C 9.68 g/m*3 23.83 C 3.6 km/h
502 22-06-2020 21:00:00 20.88333 C 10.93 g/m*3 20.88 C 3.06667 km/h
503 22-06-2020 22:00:00 17.19167 C 10.43 g/m*3 17.19 C 6.33333 km/h
504 22-06-2020 23:00:00 15.35 C 10.42 g/m*3 15.35 C 0 km/h

Maximal/Minimal-Werte vom 14.04.2020 - 16.05.2020

Sensor Min Max Avg
Temp
(Aussen-T/F)
-0.1 °C
15-04-2020  06:55:00
26.2 °C
17-04-2020  18:05:00
11.98 °C

Die Daten stammen von einer Davis Vantage Pro 2 Wetter-Station und werden unter Linux mit der Software wview2wettercgi und aufbereitet. Alle Angaben erfolgen ohne Gewähr für ihre Vollständigkeit oder Richtigkeit.
Kontakt: Rainer Krienke krienke@uni-koblenz.de . Meine Webseiten an der Uni Koblenz oder privat.
Version: $Revision: 0.78 $